Miscellaneous Local Product
Issued by NWS Hastings, NE

Home | Current Version | Previous Version | Graphics & Text | Print | Product List | Glossary On
Versions: 1 2 3 4 5 6 7 8 9 10 11 12 13 14 15 16 17 18 19 20 21 22 23 24 25 26 27 28 29 30 31 32 33 34 35 36 37 38 39 40 41 42 43 44 45 46 47 48 49 50
022
AXUS43 KGID 231202
MISGRI

GID CWA HOURLY WEATHER ROUNDUP
NATIONAL WEATHER SERVICE HASTINGS NE
700 AM CDT SAT SEP 23 2017

NOTE: "FAIR" INDICATES FEW OR NO CLOUDS BELOW 12,000 FEET WITH NO
SIGNIFICANT WEATHER AND/OR OBSTRUCTIONS TO VISIBILITY.

...SOUTH CENTRAL NEBRASKA...

CITY           SKY/WX    TMP DP  RH WIND       PRES   REMARKS
GRAND ISLAND   CLEAR     70  67  90 CALM      29.91R
HASTINGS       CLEAR     72  65  78 S8        29.91R
KEARNEY        PTCLDY    68  65  90 N5        29.92R
ORD            CLOUDY    56  51  84 NE8       29.93S
YORK           PTCLDY    68  68 100 SE6       29.92S
AURORA         PTCLDY    69  67  93 S7        29.91R
LEXINGTON      CLOUDY    61  54  77 E10       29.90S
HOLDREGE       CLEAR     70  64  82 CALM      29.90R
HEBRON         CLEAR     71  67  85 S9        29.91S

...NEBRASKA PANHANDLE...

CITY           SKY/WX    TMP DP  RH WIND       PRES   REMARKS
CHADRON        CLOUDY    45  38  76 NE12      30.04R
ALLIANCE       CLOUDY    44  40  85 N12G21    30.00R
SCOTTSBLUFF    MOCLDY    45  38  76 NW8       30.03R
SIDNEY         CLOUDY    47  39  74 N13       29.98R

...WESTERN AND NORTH CENTRAL NEBRASKA...

CITY           SKY/WX    TMP DP  RH WIND       PRES   REMARKS
VALENTINE      LGT RAIN  49  47  93 NE12      29.99S
AINSWORTH      RAIN      48  48 100 N10       29.99F
ONEILL         CLOUDY    53  52  98 NE9       29.96F
BROKEN BOW     MOCLDY    54  49  83 N9        29.93R
IMPERIAL       CLOUDY    52  48  86 N10       29.91R
NORTH PLATTE   TSTM      52  49  89 NE13      29.92S
MCCOOK         MOCLDY    69  65  86 E8        29.86R

...EASTERN NEBRASKA...

CITY           SKY/WX    TMP DP  RH WIND       PRES   REMARKS
NORFOLK        MOCLDY    58  57  97 N9        29.92F
SO SIOUX CITY  PTCLDY    66  66 100 NW9       29.94R
TEKAMAH        MOCLDY    68  66  93 SE3       29.93R
COLUMBUS       PTCLDY    72  67  84 S6        29.92R
ALBION         CLOUDY    59  56  91 N7        29.95R
OMAHA EPPLEY   MOCLDY    73  67  81 S12       29.94R
MILLARD        CLEAR     72  68  87 E3        29.94
LINCOLN        CLEAR     70  66  87 S8        29.93R
NEBRASKA CITY  CLEAR     69  69 100 S7        29.96R
BEATRICE       CLEAR     72  67  85 S7        29.94R
FALLS CITY     CLEAR     67  65  93 SE3       29.95R

...NORTHERN KANSAS...

CITY           SKY/WX    TMP DP  RH WIND       PRES   REMARKS
GOODLAND       PTCLDY    67  61  81 S9        29.86R
HILL CITY      MOCLDY    73  66  78 S9G18     29.87R
NORTON         SUNNY     70  61  73 SE9       29.86R
PHILLIPSBURG   CLEAR     72  64  78 SE6       29.88R
SMITH CENTER   CLEAR     70  63  78 SE14      29.89R
HAYS           CLEAR     71  64  78 SE8       29.90R
RUSSELL        CLEAR     72  63  73 S20       29.88R
CONCORDIA      CLEAR     70  67  90 S13       29.91S
SALINA         CLEAR     75  64  68 S10       29.93R
TOPEKA         CLEAR     69  67  93 E5        29.97R



USA.gov is the U.S. government's official web portal to all federal, state and local government web resources and services.